Home   Weather   Kalamata   Past weeks

Flag for Greece Past Weather in Kalamata, Greece — Yesterday and Last 2 Weeks

Now
63 °F

Clear.


Feels Like: 63 °F
Forecast: 55 / 79 °F
Wind: 8 mph from Northwest

Location: Kalamata Airport

Current Time: Sep 28, 2016 at 3:10:36 AM

Latest Report: Sep 28, 2016 at 2:20 AM


Visibility: 10 mi

Pressure: 30.18 "Hg

Humidity: 68%

Dew Point: 52 °F

Location of KalamataLocation

Past Weather in Kalamata — Graph

°F

Kalamata Temperature Yesterday

Maximum temperature yesterday: 79 °F (at 1:20 PM)
Minimum temperature yesterday: 59 °F (at 2:20 AM)
Average temperature yesterday: 68 °F

High & Low Weather Summary for the Past Weeks

 TemperatureHumidityPressure
High88 °F (Sep 17, 1:20 PM)94% (Sep 13, 2:50 AM)30.21 "Hg (Sep 13, 2:50 AM)
Low59 °F (Sep 24, 4:50 AM)28% (Sep 24, 1:50 PM)29.77 "Hg (Sep 20, 3:50 AM)
Average72 °F67%29.99 "Hg
* Reported Sep 13 1:50 AM — Sep 28 1:50 AM, Kalamata, Weather by CustomWeather, © 2016

Note: Actual official high and low records may vary slightly from our data, if they occured in-between our weather recording intervals... More about our weather records

Advertising

Kalamata Weather History for the Previous 24 Hours

Scroll right to see more
 ConditionsComfort  
Time TempWeatherWind HumidityBarometerVisibility
1:50 AM
Wed, Sep 28
63 °FClear.8 mph68%30.18 "Hg10 mi
1:20 AM63 °FClear.8 mph68%30.18 "Hg10 mi
12:50 AM61 °FClear.No wind77%30.18 "Hg10 mi
12:20 AM61 °FPassing clouds.No wind77%30.18 "HgN/A
11:50 PM
Tue, Sep 27
63 °FPassing clouds.No wind73%30.18 "HgN/A
11:20 PM63 °FPassing clouds.5 mph73%30.18 "HgN/A
10:50 PM63 °FPassing clouds.No wind77%30.18 "HgN/A
10:20 PM64 °FPassing clouds.No wind73%30.18 "HgN/A
9:50 PM64 °FPassing clouds.No wind78%30.15 "HgN/A
9:20 PM64 °FPassing clouds.No wind78%30.15 "HgN/A
8:50 PM64 °FPassing clouds.6 mph83%30.15 "HgN/A
8:20 PM68 °FPassing clouds.5 mph73%30.12 "HgN/A
7:50 PM68 °FPassing clouds.No wind73%30.12 "HgN/A
7:20 PM70 °FPassing clouds.No wind69%30.12 "HgN/A
6:50 PM73 °FPassing clouds.No wind61%30.09 "HgN/A
6:20 PM77 °FPassing clouds.No wind51%30.09 "HgN/A
5:50 PM79 °FPassing clouds.No wind42%30.09 "HgN/A
5:20 PM77 °FScattered clouds.No wind44%30.09 "HgN/A
4:50 PM77 °FScattered clouds.No wind47%30.09 "HgN/A
4:20 PM77 °FScattered clouds.No wind44%30.09 "HgN/A
3:50 PM77 °FScattered clouds.7 mph42%30.09 "HgN/A
3:20 PM79 °FScattered clouds.8 mph39%30.12 "HgN/A
2:50 PM79 °FScattered clouds.6 mph39%30.09 "HgN/A
2:20 PM77 °FScattered clouds.No wind42%30.12 "HgN/A
1:50 PM77 °FScattered clouds.5 mph42%30.12 "HgN/A
1:20 PM79 °FScattered clouds.5 mph42%30.12 "HgN/A
12:50 PM75 °FScattered clouds.No wind47%30.12 "HgN/A
12:20 PM75 °FPartly sunny.No wind47%30.12 "HgN/A
11:50 AM73 °FBroken clouds.No wind53%30.12 "HgN/A
11:20 AM72 °FBroken clouds.No wind61%30.12 "HgN/A
10:50 AM68 °FBroken clouds.No wind69%30.12 "HgN/A
10:20 AM68 °FBroken clouds.No wind69%30.09 "HgN/A
9:50 AM68 °FBroken clouds.No wind64%30.09 "HgN/A
8:50 AM64 °FBroken clouds.No wind78%30.09 "HgN/A
8:20 AM63 °FBroken clouds.No wind77%30.07 "HgN/A
7:50 AM63 °FDrizzle. Broken clouds.No wind73%30.07 "HgN/A
7:20 AM63 °FPartly cloudy.No wind73%30.07 "HgN/A
6:50 AM63 °FPassing clouds.No wind68%30.07 "HgN/A
6:20 AM61 °FPassing clouds.No wind77%30.07 "HgN/A
5:50 AM61 °FPassing clouds.No wind77%30.07 "HgN/A
5:20 AM61 °FPassing clouds.No wind77%30.07 "HgN/A
4:50 AM59 °FPassing clouds.No wind82%30.07 "HgN/A
4:20 AM61 °FPassing clouds.No wind83%30.07 "HgN/A
3:50 AM61 °FPassing clouds.No wind83%30.07 "HgN/A
3:20 AM61 °FPassing clouds.No wind72%30.07 "HgN/A
Weather by CustomWeather, © 2016

See weather overviewHow to use our weather pages